Weather History for Mammoth, CA

Change the Weather History Date:

Tuesday, March 5, 2013

  Actual Average Record
Temperature  
Mean Temperature 38 °F -  
Max Temperature 55 °F 40 °F 60 °F (2012)
Min Temperature 21 °F 29 °F -4 °F (2009)
Degree Days  
Heating Degree Days 27    
Moisture  
Dew Point 13 °F    
Average Humidity 40    
Maximum Humidity 86    
Minimum Humidity 12    
Precipitation  
Precipitation 0.00 in - - ()
Sea Level Pressure  
Sea Level Pressure 29.97 in    
Wind  
Wind Speed 6 mph (South)    
Max Wind Speed 31 mph    
Max Gust Speed 50 mph    
Visibility 10 miles    
Events      
Averages and records for this station are not official NWS values.
T = Trace of Precipitation, MM = Missing Value Source: NWS Daily Summary

Daily Weather History Graph

Daily Weather History Graph

Search for Another Location

Airport:

Trip Planner

Search our weather history database for the weather conditions in past years. The results will help you decide how hot, cold, wet, or windy it might be!

Date:

Astronomy

Mar. 05, 2013 Rise Set
Actual Time 6:20 AM PST 5:53 PM PST
Civil Twilight 5:54 AM PST 6:19 PM PST
Nautical Twilight 5:24 AM PST 6:49 PM PST
Astronomical Twilight 4:53 AM PST 7:20 PM PST
Moon 1:32 AM PST (3/5) 11:42 AM PST (3/5)
Length of Visible Light 12h 25m
Length of Day
11h 32m
Last Quarter, 39% of the Moon is Illuminated
Mar 5
Last Quarter
Mar 11
New
Mar 19
First Quarter
Mar 27
Full
Apr 2
Last Quarter

Hourly Weather History & Observations

Time (PST) Temp. Windchill Dew Point Humidity Pressure Visibility Wind Dir Wind Speed Gust Speed Precip Events Conditions
12:15 AM 24.8 °F 20.5 °F 17.6 °F 74% 30.10 in 10.0 mi NNW 3.5 mph - N/A   Clear
12:35 AM 21.2 °F 16.4 °F 17.6 °F 86% 30.11 in 10.0 mi North 3.5 mph - N/A   Clear
12:55 AM 23.0 °F 18.4 °F 17.6 °F 80% 30.10 in 10.0 mi NE 3.5 mph - N/A   Clear
1:15 AM 24.8 °F 20.5 °F 15.8 °F 69% 30.10 in 10.0 mi NE 3.5 mph - N/A   Clear
1:35 AM 23.0 °F 15.8 °F 17.6 °F 80% 30.10 in 10.0 mi WNW 5.8 mph - N/A   Clear
1:55 AM 23.0 °F - 17.6 °F 80% 30.09 in 10.0 mi Calm Calm - N/A   Clear
2:15 AM 23.0 °F 15.8 °F 15.8 °F 74% 30.07 in 10.0 mi NNE 5.8 mph - N/A   Clear
2:35 AM 26.6 °F - 17.6 °F 69% 30.07 in 10.0 mi Calm Calm - N/A   Clear
2:55 AM 26.6 °F 22.6 °F 15.8 °F 64% 30.06 in 10.0 mi ENE 3.5 mph - N/A   Clear
3:15 AM 24.8 °F 20.5 °F 17.6 °F 74% 30.06 in 10.0 mi SW 3.5 mph - N/A   Clear
3:35 AM 26.6 °F - 17.6 °F 69% 30.06 in 10.0 mi Calm Calm - N/A   Clear
3:55 AM 26.6 °F - 17.6 °F 69% 30.05 in 10.0 mi Calm Calm - N/A   Clear
4:15 AM 24.8 °F - 17.6 °F 74% 30.05 in 10.0 mi Calm Calm - N/A   Clear
5:15 AM 24.8 °F - 17.6 °F 74% 30.05 in 10.0 mi Calm Calm - N/A   Clear
5:35 AM 26.6 °F 19.1 °F 19.4 °F 74% 30.05 in 10.0 mi ESE 6.9 mph - N/A   Clear
5:55 AM 24.8 °F - 19.4 °F 80% 30.05 in 10.0 mi Calm Calm - N/A   Clear
6:15 AM 26.6 °F 20.0 °F 19.4 °F 74% 30.04 in 10.0 mi NE 5.8 mph - N/A   Clear
6:35 AM 24.8 °F 16.9 °F 17.6 °F 74% 30.03 in 10.0 mi East 6.9 mph - N/A   Clear
6:55 AM 26.6 °F 21.2 °F 17.6 °F 69% 30.04 in 10.0 mi NW 4.6 mph - N/A   Clear
7:15 AM 30.2 °F - 19.4 °F 64% 30.04 in 10.0 mi Calm Calm - N/A   Clear
7:35 AM 32.0 °F - 19.4 °F 60% 30.05 in 10.0 mi Calm Calm - N/A   Clear
7:55 AM 37.4 °F - 19.4 °F 48% 30.05 in 10.0 mi Calm Calm - N/A   Clear
8:15 AM 39.2 °F - 17.6 °F 42% 30.05 in 10.0 mi Calm Calm - N/A   Clear
8:35 AM 41.0 °F 34.7 °F 19.4 °F 42% 30.04 in 10.0 mi ESE 10.4 mph - N/A   Clear
8:55 AM 41.0 °F 35.2 °F 23.0 °F 49% 30.04 in 10.0 mi ESE 9.2 mph 17.3 mph N/A   Clear
9:15 AM 42.8 °F 41.1 °F 19.4 °F 39% 30.04 in 10.0 mi East 3.5 mph - N/A   Clear
9:35 AM 44.6 °F 40.7 °F 19.4 °F 37% 30.03 in 10.0 mi ENE 6.9 mph - N/A   Clear
9:55 AM 46.4 °F 45.2 °F 17.6 °F 32% 30.03 in 10.0 mi ESE 3.5 mph - N/A   Clear
10:15 AM 48.2 °F - 17.6 °F 30% 30.02 in 10.0 mi ENE 9.2 mph - N/A   Clear
10:35 AM 48.2 °F - 17.6 °F 30% 30.02 in 10.0 mi East 8.1 mph - N/A   Clear
10:55 AM 50.0 °F - 15.8 °F 26% 30.01 in 10.0 mi ENE 6.9 mph - N/A   Clear
11:15 AM 51.8 °F - 14.0 °F 22% 30.00 in 10.0 mi ENE 8.1 mph - N/A   Clear
11:35 AM 53.6 °F - 10.4 °F 18% 29.99 in 10.0 mi Calm Calm - N/A   Clear
11:55 AM 53.6 °F - 5.0 °F 14% 30.00 in 10.0 mi SW 17.3 mph 32.2 mph N/A   Clear
12:15 PM 51.8 °F - 5.0 °F 15% 29.99 in 10.0 mi SW 20.7 mph 31.1 mph N/A   Clear
12:35 PM 53.6 °F - 6.8 °F 15% 29.99 in 10.0 mi SSW 13.8 mph 25.3 mph N/A   Clear
12:55 PM 53.6 °F - 6.8 °F 15% 29.98 in 10.0 mi SSW 13.8 mph 27.6 mph N/A   Clear
1:15 PM 53.6 °F - 8.6 °F 16% 29.97 in 10.0 mi South 13.8 mph 25.3 mph N/A   Clear
1:35 PM 53.6 °F - 8.6 °F 16% 29.96 in 10.0 mi SSE 11.5 mph 25.3 mph N/A   Clear
1:55 PM 53.6 °F - 8.6 °F 16% 29.94 in 10.0 mi SSE 5.8 mph - N/A   Scattered Clouds
2:15 PM 53.6 °F - 8.6 °F 16% 29.93 in 10.0 mi SW 6.9 mph - N/A   Mostly Cloudy
2:35 PM 55.4 °F - 8.6 °F 15% 29.92 in 10.0 mi South 10.4 mph - N/A   Overcast
2:55 PM 53.6 °F - 6.8 °F 15% 29.92 in 10.0 mi SSW 17.3 mph 26.5 mph N/A   Overcast
3:15 PM 51.8 °F - 6.8 °F 16% 29.91 in 10.0 mi SSW 10.4 mph 20.7 mph N/A   Overcast
3:35 PM 51.8 °F - 6.8 °F 16% 29.91 in 10.0 mi South 8.1 mph 29.9 mph N/A   Mostly Cloudy
3:55 PM 50.0 °F - 6.8 °F 17% 29.90 in 10.0 mi SW 10.4 mph 35.7 mph N/A   Mostly Cloudy
4:15 PM 50.0 °F - 5.0 °F 16% 29.91 in 10.0 mi SW 11.5 mph 34.5 mph N/A   Mostly Cloudy
4:35 PM 50.0 °F - 3.2 °F 15% 29.89 in 10.0 mi SW 6.9 mph - N/A   Scattered Clouds
4:55 PM 50.0 °F - 1.4 °F 14% 29.88 in 10.0 mi NE 9.2 mph - N/A   Clear
5:15 PM 48.2 °F - -2.2 °F 12% 29.88 in 10.0 mi West 8.1 mph - N/A   Clear
5:35 PM 44.6 °F 41.4 °F -2.2 °F 14% 29.87 in 10.0 mi WNW 5.8 mph 19.6 mph N/A   Clear
5:55 PM 44.6 °F - -2.2 °F 14% 29.88 in 10.0 mi Calm Calm - N/A   Clear
6:15 PM 42.8 °F 39.3 °F 1.4 °F 18% 29.87 in 10.0 mi WNW 5.8 mph - N/A   Clear
6:35 PM 42.8 °F 38.0 °F 5.0 °F 21% 29.87 in 10.0 mi West 8.1 mph - N/A   Clear
6:55 PM 42.8 °F 41.1 °F 6.8 °F 23% 29.86 in 10.0 mi WSW 3.5 mph - N/A   Clear
7:15 PM 42.8 °F - 6.8 °F 23% 29.87 in 10.0 mi Calm Calm - N/A   Clear
7:35 PM 41.0 °F 36.4 °F 6.8 °F 24% 29.85 in 10.0 mi South 6.9 mph - N/A   Clear
7:55 PM 42.8 °F - 6.8 °F 23% 29.85 in 10.0 mi Calm Calm - N/A   Clear
8:15 PM 41.0 °F 34.3 °F 8.6 °F 26% 29.85 in 10.0 mi ESE 11.5 mph 16.1 mph N/A   Clear
8:35 PM 41.0 °F 33.1 °F 8.6 °F 26% 29.85 in 10.0 mi West 15.0 mph 25.3 mph N/A   Clear
8:55 PM 41.0 °F 38.0 °F 10.4 °F 29% 29.85 in 10.0 mi SSW 4.6 mph 24.2 mph N/A   Clear
9:15 PM 41.0 °F 35.2 °F 10.4 °F 29% 29.85 in 10.0 mi South 9.2 mph 23.0 mph N/A   Clear
9:35 PM 41.0 °F 39.0 °F 10.4 °F 29% 29.84 in 10.0 mi SE 3.5 mph - N/A   Clear
9:55 PM 41.0 °F 35.2 °F 12.2 °F 31% 29.85 in 10.0 mi South 9.2 mph 19.6 mph N/A   Clear
10:15 PM 41.0 °F 32.8 °F 14.0 °F 33% 29.87 in 10.0 mi SSW 16.1 mph 23.0 mph N/A   Clear
10:35 PM 39.2 °F 30.2 °F 19.4 °F 45% 29.85 in 10.0 mi SW 17.3 mph 39.1 mph N/A   Scattered Clouds
10:55 PM 39.2 °F 29.0 °F 21.2 °F 49% 29.86 in 10.0 mi SW 21.9 mph 33.4 mph N/A   Mostly Cloudy
11:15 PM 39.2 °F 29.3 °F 21.2 °F 49% 29.84 in 10.0 mi SW 20.7 mph 49.5 mph N/A   Overcast
11:35 PM 39.2 °F 27.2 °F 19.4 °F 45% 29.85 in 10.0 mi SSW 31.1 mph 46.0 mph N/A   Scattered Clouds
11:55 PM 39.2 °F 29.6 °F 15.8 °F 39% 29.85 in 10.0 mi SSW 19.6 mph 29.9 mph N/A   Clear